CHUTIAN-2 B

Last updated on Tue Dec 09 2025 00:02:05 GMT+0000 (Coordinated Universal Time)

1 66410U 25256B 25342.50072219 .00001327 00000+0 34704-3 0 9992 2 66410 98.2797 47.3789 0013696 193.7504 166.3320 14.50918128 4265
UTC large
Height (km)
Speed (km/s)
/
Latitude / Longitude
Inclination (degrees)
Orbital Period (minutes)
Azimuth
Elevation
Range (km)
Doppler Factor

Next 0 passes for location: London (51.5072 / 0.1276)

Sorry there are no passes over London.